Weather in Blagodatnoye

Russia / Stavropol Krai     45°23′53″N   42°35′11″E
temp.,
°C
wind,
m/s
gust,
m/s
humid.,
%
clouds,
%
prec.,
mm/h
press.,
hPa
HPBL,
m
18 may, tue
tue1800:00+16wnw91696100 3.9 1008678
03:00+15w51196100 4.8 1010572
06:00+14w4995100 1.0 1011520
09:00+15wnw5888100 1.4 1011595
12:00+20wnw6764100 0.0 10111199
15:00+21wnw566061 0.0 10111378
18:00+21wnw23650 0.0 1011752
21:00+16se11750 0.0 101111
19 may, wed
wed1900:00+15se22801 0.0 101018
03:00+14se3582100 0.0 100968
06:00+15se3782100 0.0 1009196
09:00+19s4770100 0.2 1010897
12:00+14w10168797 3.4 1014816
15:00+16w711767 3.6 10141018
18:00+17wnw5117093 0.0 10151398
21:00+12wsw358197 0.0 101777
20 may, thu
thu2000:00+11ssw34825 0.0 101757
03:00+10ssw348128 0.0 101742
06:00+12s23785 0.0 101785
09:00+18s4667100 0.0 1017704
12:00+22s44481 0.0 10151513
15:00+23se445099 0.0 10151595
18:00+21se4865100 0.0 1015302
21:00+16ese487298 0.0 1015122
21 may, fri
fri2100:00+15ese514685 0.0 1014282
03:00+14se616655 0.0 1013315
06:00+14se6176515 0.0 1014374
09:00+20se914575 0.0 1013561
12:00+24ese9115148 0.0 1012768
15:00+27ese812508 0.0 1011958
18:00+25ese9155499 0.0 1010679
21:00+20ese918594 0.0 1011576
22 may, sat
sat2200:00+18se918615 0.0 1010441
03:00+16se91865100 0.0 1010435
06:00+16ese7177121 0.0 1010450
09:00+22se915615 0.0 1009577
12:00+27ese10134944 0.0 1009924
15:00+30ese81343100 0.0 10081304
18:00+26se495699 0.0 1008196
21:00+21e61256100 0.0 1009225